GW4151 Weather Reports


time (UTC)temp
C
wind
direction
speed
KPH
gust
KPH
rain 1hr
cm
rain 24hr
cm
rain mn
cm
humidity
%
barometer
mb
20260504183225 22 185 11.3 20.9 0.00 0.00 0.00 35 980.4
20260504181724 23 301 8.0 20.9 0.00 0.00 0.00 35 980.4
20260504180224 22 230 14.5 24.1 0.00 0.00 0.00 33 980.7
20260504174721 23 334 9.7 22.5 0.00 0.00 0.00 32 980.7
20260504173218 23 183 11.3 25.7 0.00 0.00 0.00 31 980.8
20260504171714 23 79 9.7 24.1 0.00 0.00 0.00 33 981.0
20260504170211 23 144 12.9 17.7 0.00 0.00 0.00 35 981.2
20260504160158 21 227 9.7 22.5 0.00 0.00 0.00 40 981.9
20260504150149 18 193 4.8 16.1 0.00 0.00 0.00 53 982.5
20260504140134 17 219 11.3 14.5 0.00 0.00 0.00 57 983.0
20260504130123 15 153 6.4 11.3 0.00 0.00 0.00 66 983.6
20260504120115 12 211 8.0 11.3 0.00 0.00 0.00 74 983.3
20260504081529 10 214 1.6 4.8 0.00 0.00 0.00 80 983.5
20260504045941 11 187 3.2 9.7 0.00 0.00 0.00 79 985.5
20260504044437 11 239 4.8 12.9 0.00 0.00 0.00 79 985.7
20260504042934 11 206 9.7 11.3 0.00 0.00 0.00 78 985.6
20260504041429 11 193 4.8 6.4 0.00 0.00 0.00 78 985.6
20260504035925 11 183 3.2 14.5 0.00 0.00 0.00 76 986.0
20260504034423 11 154 4.8 14.5 0.00 0.00 0.00 76 986.0
20260504032920 11 183 8.0 22.5 0.00 0.00 0.00 75 986.1
20260504031417 11 168 11.3 16.1 0.00 0.00 0.00 75 986.1
20260504025911 11 153 6.4 12.9 0.00 0.00 0.00 75 986.2
20260504024408 11 152 6.4 14.5 0.00 0.00 0.00 75 986.1
20260504022908 11 170 4.8 11.3 0.00 0.00 0.00 74 986.4
20260504021405 11 193 9.7 12.9 0.00 0.00 0.00 73 986.3
20260504015900 11 153 9.7 12.9 0.00 0.00 0.00 72 986.4
20260504014355 11 92 6.4 12.9 0.00 0.00 0.00 71 986.1
20260504012852 11 182 6.4 11.3 0.00 0.00 0.00 70 986.2
20260504011350 12 148 8.0 14.5 0.00 0.00 0.00 69 986.2
20260504005850 12 139 4.8 9.7 0.00 0.00 0.00 66 985.8
20260504004348 12 162 4.8 24.1 0.00 0.00 0.00 65 986.1
20260504002848 13 130 6.4 14.5 0.00 0.00 0.00 63 985.9
20260504001346 13 170 11.3 17.7 0.00 0.00 0.00 61 986.2
20260503235843 14 140 9.7 12.9 0.00 0.00 0.00 60 986.5
20260503234341 14 167 6.4 20.9 0.00 0.00 0.00 60 986.5
20260503232837 14 181 14.5 17.7 0.00 0.00 0.00 60 986.5
20260503231335 14 125 6.4 14.5 0.00 0.00 0.00 60 986.9
20260503225832 14 179 9.7 14.5 0.00 0.00 0.00 59 987.1
20260503224327 14 150 4.8 11.3 0.00 0.00 0.00 59 987.4
20260503222824 14 176 16.1 17.7 0.00 0.00 0.00 58 987.7
20260503221319 13 163 6.4 24.1 0.00 0.00 0.00 59 988.1
20260503215814 13 203 16.1 24.1 0.00 0.00 0.00 58 988.4
20260503214312 14 232 9.7 20.9 0.00 0.00 0.00 57 988.5
20260503212809 13 207 3.2 16.1 0.00 0.00 0.00 63 988.5
20260503211307 12 148 4.8 14.5 0.00 0.00 0.00 66 988.4
20260503205805 12 220 6.4 11.3 0.00 0.00 0.00 66 988.8
20260503204302 11 140 3.2 9.7 0.00 0.00 0.00 67 988.9
20260503202759 11 187 3.2 24.1 0.00 0.00 0.00 68 989.1
20260503201258 11 147 4.8 17.7 0.00 0.00 0.00 72 989.5
20260503195755 10 65 9.7 22.5 0.00 0.00 0.00 75 990.2
20260503194250 9 129 9.7 22.5 0.00 0.00 0.00 78 990.1
20260503192750 10 257 8.0 27.4 0.00 0.00 0.00 78 990.5
20260503191245 11 186 19.3 40.2 0.00 0.00 0.00 65 990.7
20260503185742 12 273 24.1 35.4 0.00 0.00 0.00 61 991.0